Location: Unspecified
(0.0000°N, 0.0000°E)
Time: 13:06:09
(UTC+00:00)

Hubble Space Telescope - Pass Details

Date: 26 March 2020
Orbit: 536 x 540 km, 28.5° (Epoch: 01 April)

Event Time Altitude Azimuth Distance (km) Brightness Sun altitude
Rises 19:35:39 0° 212° (SSW) 2,672 4.7 -22.5°
Reaches altitude 10° 19:38:46 10° 187° (S) 1,781 3.5 -23.3°
Enters shadow 19:39:09 11° 183° (S) 1,705 3.3 -23.4°
